Lamar, CO

5:34 PM MDT on June 25, 2017 (GMT -0600)
Lamar Municipal

Weather History for KLAA - September, 2014

Change the Weather History Date:

Wednesday, September 3, 2014

  Actual Average Record
Temperature  
Mean Temperature 82 °F 71 °F  
Max Temperature 104 °F 87 °F 104 °F (2014)
Min Temperature 60 °F 56 °F 37 °F (1974)
Degree Days  
Heating Degree Days 0 1  
Month to date heating degree days 0 2  
Since 1 July heating degree days 0 7  
Cooling Degree Days 17 7  
Month to date cooling degree days 31 21  
Year to date cooling degree days 1190 1010  
Growing Degree Days 32 (Base 50)    
Moisture  
Dew Point 54 °F    
Average Humidity 50    
Maximum Humidity 93    
Minimum Humidity 7    
Precipitation  
Precipitation 0.00 in 0.06 in 1.33 in (1918)
Month to date precipitation 0.00  
Year to date precipitation 10.22  
Sea Level Pressure  
Sea Level Pressure 29.68 in    
Wind  
Wind Speed 14 mph (SW)    
Max Wind Speed 36 mph    
Max Gust Speed 47 mph    
Visibility 6 miles    
Events Fog    
T = Trace of Precipitation, MM = Missing Value Source: NWS Daily Summary

Daily Weather History Graph

Daily Weather History Graph

Search for Another Location

Airport or City:

Trip Planner

Search our weather history database for the weather conditions in past years. The results will help you decide how hot, cold, wet, or windy it might be!

Date:

Astronomy

Sep. 03, 2014 Rise Set
Actual Time 6:22 AM MDT 7:17 PM MDT
Civil Twilight 5:55 AM MDT 7:44 PM MDT
Nautical Twilight 5:23 AM MDT 8:15 PM MDT
Astronomical Twilight 4:50 AM MDT 8:48 PM MDT
Moon 2:58 PM MDT (9/3) 12:21 AM MDT (9/3)
Length of Visible Light 13h 48m
Length of Day
12h 54m
Waxing Gibbous, 64% of the Moon is Illuminated
Sep 3
Waxing Gibbous
Sep 8
Full
Sep 15
Last Quarter
Sep 24
New
Oct 1
First Quarter

Hourly Weather History & Observations

Time (MDT) Temp. Heat Index Dew Point Humidity Pressure Visibility Wind Dir Wind Speed Gust Speed Precip Events Conditions
12:53 AM 69.1 °F - 64.0 °F 84% 29.74 in 8.0 mi ESE 6.9 mph - N/A   Clear
1:53 AM 66.0 °F - 63.0 °F 90% 29.73 in 6.0 mi East 5.8 mph - N/A   Clear
2:53 AM 66.0 °F - 64.0 °F 93% 29.72 in 5.0 mi East 6.9 mph - N/A   Clear
3:53 AM 64.0 °F - 63.0 °F 96% 29.70 in 2.5 mi East 8.1 mph - N/A   Clear
4:53 AM 64.9 °F - 63.0 °F 93% 29.70 in 2.5 mi ESE 6.9 mph - N/A   Clear
5:53 AM 64.0 °F - 62.1 °F 93% 29.70 in 5.0 mi SSW 3.5 mph - N/A   Clear
6:35 AM 61.0 °F - 59.0 °F 93% 29.86 in 2.5 mi West 8.1 mph - N/A   Clear
6:45 AM 62.1 °F - 61.0 °F 96% 29.87 in 3.0 mi West 8.1 mph - N/A   Clear
6:50 AM 62.6 °F - 60.8 °F 94% 29.87 in 2.0 mi West 5.8 mph - N/A   Partly Cloudy
6:53 AM 62.1 °F - 61.0 °F 96% 29.73 in 1.0 mi West 4.6 mph - N/A   Mist
7:00 AM 62.1 °F - 61.0 °F 96% 29.87 in 0.2 mi SW 4.6 mph - N/A Fog Fog
7:45 AM 64.0 °F - 63.0 °F 96% 29.87 in 2.0 mi West 8.1 mph - N/A   Mostly Cloudy
7:50 AM 64.4 °F - 62.6 °F 94% 29.87 in 5.0 mi West 8.1 mph - N/A   Scattered Clouds
7:53 AM 64.0 °F - 63.0 °F 96% 29.73 in 6.0 mi WSW 9.2 mph - N/A   Scattered Clouds
8:53 AM 75.0 °F - 57.9 °F 55% 29.72 in 8.0 mi West 13.8 mph - N/A   Clear
9:53 AM 80.1 °F 80.9 °F 60.1 °F 50% 29.71 in 8.0 mi West 15.0 mph - N/A   Clear
10:53 AM 87.1 °F 85.9 °F 57.0 °F 36% 29.69 in 9.0 mi WNW 10.4 mph - N/A   Clear
11:53 AM 93.0 °F - 50.0 °F 23% 29.67 in 9.0 mi West 13.8 mph - N/A   Clear
12:53 PM 97.0 °F - 48.0 °F 19% 29.63 in 9.0 mi Variable 3.5 mph - N/A   Clear
1:53 PM 100.9 °F - 41.0 °F 13% 29.59 in 9.0 mi Variable 5.8 mph - N/A   Clear
2:53 PM 102.0 °F - 28.0 °F 7% 29.56 in 10.0 mi Variable 6.9 mph 20.7 mph N/A   Clear
3:53 PM 102.9 °F - 30.9 °F 8% 29.54 in 10.0 mi SSW 13.8 mph 18.4 mph N/A   Clear
4:53 PM 102.0 °F - 34.0 °F 9% 29.52 in 9.0 mi West 11.5 mph 23.0 mph N/A   Clear
5:53 PM 99.0 °F - 42.1 °F 14% 29.52 in 9.0 mi South 20.7 mph 26.5 mph N/A   Clear
6:53 PM 95.0 °F - 39.9 °F 15% 29.52 in 8.0 mi South 21.9 mph 35.7 mph N/A   Clear
7:53 PM 91.9 °F - 39.9 °F 16% 29.55 in 10.0 mi South 21.9 mph 33.4 mph N/A   Clear
8:53 PM 89.1 °F - 51.1 °F 27% 29.56 in 8.0 mi South 29.9 mph 40.3 mph N/A   Clear
9:53 PM 86.0 °F 84.0 °F 53.1 °F 32% 29.56 in 8.0 mi South 29.9 mph 43.7 mph N/A   Clear
10:53 PM 84.9 °F - 52.0 °F 32% 29.56 in 9.0 mi SSW 31.1 mph 43.7 mph N/A   Clear
11:53 PM 84.9 °F - 51.1 °F 31% 29.55 in 9.0 mi SSW 27.6 mph 38.0 mph N/A   Clear